Flag for Germany Weather past 2 weeks in Darmstadt, Hesse, Germany

32 °F

Snow. Passing clouds.

Feels Like: 24 °F
Forecast: 35 / 42 °F
Wind: 10 mph from South

Location: Frankfurt-M-Flughafen Airport

Current Time: Nov 24, 2015 at 11:53:00 PM

Latest Report: Nov 24, 2015 at 11:20 PM

Visibility: 1 mi

Pressure: 29.89 "Hg

Humidity: 100%

Dew point: 32 °F

Location of DarmstadtLocation

Historic Weather in Darmstadt — Graph


Darmstadt temperature yesterday

Maximum temperature yesterday: 41 °F (at 10:50 AM)
Minimum temperature yesterday: 28 °F (at 11:20 PM)
Average temperature yesterday: 37 °F

Past Weeks' High & Low Weather Summary

High61 °F (Nov 18, 12:50 AM)100% (Nov 13, 12:20 AM)30.36 "Hg (Nov 13, 12:20 AM)
Low27 °F (Nov 24, 2:20 AM)51% (Nov 18, 12:50 PM)29.39 "Hg (Nov 21, 2:20 PM)
Average48 °F81%30.04 "Hg
* Reported Nov 9 10:20 PM — Nov 24 10:20 PM, Darmstadt, Weather by CustomWeather, © 2015

Note: Actual official high and low records may vary slightly from our data, if they occured in-between our weather recording intervals... More about our weather records


Darmstadt weather history for previous 24 hours

Time TempWeatherWind HumidityBarometerVisibility
10:20 PM
Tue, Nov 24
34 °FSnow. Mostly cloudy.9 mph93%29.92 "Hg2 mi
9:50 PM34 °FLight rain. Mostly cloudy.10 mph93%29.92 "Hg5 mi
9:20 PM36 °FLight rain. Partly cloudy.10 mph87%29.95 "Hg6 mi
8:50 PM36 °FRain. Partly cloudy.10 mph87%29.95 "Hg4 mi
8:20 PM36 °FLight rain. Partly cloudy.9 mph87%29.98 "HgN/A
7:50 PM36 °FLight rain. Partly cloudy.12 mph81%29.98 "HgN/A
7:20 PM36 °FLight rain. Partly cloudy.9 mph87%29.98 "HgN/A
6:50 PM36 °FLight rain. Partly cloudy.13 mph87%30.01 "HgN/A
6:20 PM37 °FLight rain. Partly cloudy.10 mph75%30.01 "HgN/A
5:50 PM37 °FLight rain. Partly cloudy.9 mph75%30.01 "HgN/A
5:20 PM37 °FPartly cloudy.12 mph75%30.04 "HgN/A
4:50 PM37 °FPartly cloudy.10 mph81%30.04 "HgN/A
4:20 PM37 °FPartly sunny.9 mph81%30.07 "HgN/A
3:50 PM37 °FBroken clouds.9 mph81%30.07 "HgN/A
3:20 PM37 °FBroken clouds.12 mph81%30.07 "HgN/A
2:50 PM37 °FPartly sunny.10 mph81%30.09 "HgN/A
2:20 PM37 °FBroken clouds.8 mph81%30.09 "HgN/A
1:50 PM36 °FPartly sunny.8 mph87%30.12 "HgN/A
1:20 PM36 °FBroken clouds.7 mph87%30.15 "Hg6 mi
12:50 PM34 °FPartly sunny.8 mph93%30.15 "Hg5 mi
12:20 PM34 °FPartly sunny.7 mph93%30.18 "Hg5 mi
11:50 AM34 °FPartly sunny.7 mph93%30.18 "Hg4 mi
11:20 AM32 °FPartly sunny.8 mph100%30.21 "Hg4 mi
10:50 AM32 °FIce fog.10 mph93%30.21 "Hg3 mi
10:20 AM32 °FIce fog.7 mph100%30.21 "Hg1 mi
9:50 AM32 °FIce fog.8 mph100%30.24 "Hg1 mi
9:20 AM32 °FIce fog.7 mph100%30.24 "Hg1 mi
8:50 AM32 °FPartly sunny.7 mph93%30.24 "Hg1 mi
8:20 AM32 °FPartly sunny.7 mph93%30.24 "Hg1 mi
7:50 AM32 °FIce fog.7 mph93%30.24 "Hg1 mi
7:20 AM32 °FIce fog.6 mph93%30.24 "Hg1 mi
6:50 AM30 °FIce fog.7 mph100%30.24 "Hg1 mi
6:20 AM30 °FIce fog.8 mph100%30.24 "Hg1 mi
5:50 AM32 °FIce fog.6 mph93%30.24 "Hg1 mi
5:20 AM30 °FPassing clouds.2 mph93%30.24 "Hg1 mi
4:50 AM30 °FIce fog.2 mph93%30.24 "Hg0 mi
3:50 AM28 °FPassing clouds.No wind93%30.27 "Hg4 mi
3:20 AM28 °FPassing clouds.2 mph93%30.27 "Hg6 mi
2:50 AM27 °FClear.2 mph100%30.27 "Hg10 mi
2:20 AM27 °FChilly.2 mph100%30.27 "HgN/A
1:50 AM28 °FClear.1 mph93%30.27 "Hg10 mi
1:20 AM28 °FPassing clouds.3 mph93%30.27 "HgN/A
12:50 AM28 °FClear.1 mph93%30.27 "Hg10 mi
12:20 AM28 °FClear.5 mph100%30.27 "Hg10 mi
11:20 PM
Mon, Nov 23
28 °FClear.3 mph100%30.30 "Hg10 mi
Weather by CustomWeather, © 2015

See weather overviewHow to use our weather pages